COSMOS 2251 DEB, 34846

Orbit data source: Space-Track

COSMOS 2251 DEB, 34846 is space debris in LEO originally from a launch on Wed, 16 Jun 1993 UTC launched from the Plesetsk Missile And Space Complex (PKMTR). The debris from Iridium 33, an American commercial communications satellite, has been tracked extensively since its accidental collision with the defunct Russian satellite Cosmos 2251 in 2009. This event, occurring at high speed in low Earth orbit (LEO), generated thousands of pieces of space debris, significantly increasing the risk of further collisions. The Iridium 33 debris cloud has impacted space traffic management and orbital debris mitigation strategies, making it a subject of ongoing study in space situational awareness.

Loading next visibility...
Identifier
34846, 1993-036ABQ
Orbit
LEO
Country
Flag of CISCIS
Related business
Manufacturer
Unknown
Mission
Spacecraft
Bus & Motor
Unknown
Mass
Unknown
Launch date (UTC)
1993-06-16 (33 years ago)
Launch vehicle
Unknown
Launch site
Plesetsk Missile And Space Complex (PKMTR)
Object type
Payload
Rocket body
Debris
Shape & HBR
Unknown shape, 0.1 m
Radar Cross Section
Small (<0.1 m²)

Expand to show TLE details & history
Last TLE update: 13 hours ago

TLE from 13 hours ago
0 COSMOS 2251 DEB
1 34846U 93036ABQ 26169.07966998  .00001497  00000-0  40668-3 0  9992
2 34846  74.0296 271.0985 0026147 297.6057  62.2448 14.48250053901157
Epoch: 2026-06-18T01:54Z
TLE epoch observation values (Epoch: 2026-06-18T01:54:43.486Z)
Latitude
0.00005°
Longitude
-23.91082°
Altitude
725.375 km
Speed
7.497 km/s
True Right ascension
18h 04m 23s
True Declination
0° 00' 00"
Sunlit
Object was in full shadow at epoch
Visualization orbit readout
Latitude
Unknown
Longitude
Unknown
Altitude
Unknown
Speed
Unknown
Apparent Right ascension
Unknown
Apparent Declination
Unknown
Sunlit
N/A
Visualization observer readout
Local Sidereal Time
01:59:33
Azimuth
Unknown
Elevation
Unknown
Doppler factor
Unknown
Orbital elements
Apogee altitude
747.564 km
Perigee altitude
710.398 km
Semi-major axis
7,107.118 km
Eccentricity
0.00261
Inclination
74.0296°
RAAN
271.0985°
Arg. of periapsis
297.6057°
True anomaly
62.51035°
Mean anomaly
62.2448°
Eccentric anomaly
62.37754°
Mean motion
3.62245 °/min
Orbital period
99.38 mins
BSTAR
0.00040668

Documentation

Showing up to 5 results
|